Location: Cicognara
(44.9500°N, 10.4667°E)
Time: 15:21:28
(UTC+00:00)

Cosmos 389 Rocket - Pass Details

Date: 20 June 2021
Orbit: 440 x 471 km, 81.1° (Epoch: 03 August)

Event Time Altitude Azimuth Distance (km) Brightness Sun altitude
Rises 21:18:11 0° 354° (N) 2,448 7.4 -16.2°
Reaches altitude 10° 21:20:17 10° 359° (N) 1,576 6.1 -16.4°
Maximum altitude 21:23:39 52° 77° (ENE) 566 2.7 -16.7°
Enters shadow 21:24:30 40° 125° (SE) 679 2.8 -16.7°
